Cosmos 1315 Rocket - Orbit

View from above orbital plane
View from above orbital plane
View from above satellite
View from above satellite

Ground track
Ground track

The orbit data is extracted from the following two-line orbital elements,

1 12904U 81103B   13141.13312342  .00001628  00000-0  12501-3 0  2349
2 12904 081.1777 170.5305 0029499 269.2600 090.5240 15.00936007269219
Epoch (UTC): 21 May 2013 03:11:41
Eccentricity: 0.0029499
inclination: 81.1777°
perigee height: 543 km
apogee height: 584 km
right ascension of ascending node: 170.5305°
argument of perigee: 269.2600°
revolutions per day: 15.00936007
mean anomaly at epoch: 90.5240°
orbit number at epoch: 26921

The dashed part of the orbit path shows where the satellite is in the earth's shadow,  

Developed and maintained by Chris Peat, Heavens-Above GmbH. Please read the updated FAQ before sending e-mail. Imprint. DLR